STARLINK-32641, 62236

Orbit data source: Space-Track

STARLINK-32641, 62236 is a payload satellite owned by SpaceX/Seattle (US) in LEO that was launched on Thu, 05 Dec 2024 UTC via an FALCON 9 launch vehicle from the Air Force Western Test Range (AFWTR). Payload-class satellites include a variety of spacecraft equipped with specific instruments for various scientific and technological missions. These include communications satellites like Starlink; space stations such as the ISS; scientific satellites like the Hubble; Earth observation satellites from companies like Planet Labs, Umbra, and HawkEye 360; GPS; miniature CubeSats for education and research; and military/defense satellites.

Loading next visibility...
Identifier
62236, 2024-231U
Orbit
LEO
Country
Flag of USUS
Related business
Manufacturer
SpaceX/Seattle
Mission
Operational Commercial Communications
Bus & Motor
STARLINK V2M, Unknown motor
Mass
730 kg wet, ~700 kg dry
Launch date (UTC)
2024-12-05 (11 months ago)
Launch vehicle
FALCON 9
Launch site
Air Force Western Test Range (AFWTR)
Object type
Payload
Rocket body
Debris
Shape & HBR
Box + 2 Pan, 17.7 m
Radar Cross Section
33.884 m², Large (>1 m²)

Expand to show TLE details & history
Last TLE update: 20 hours ago

TLE from 20 hours ago
0 STARLINK-32641
1 62236U 24231U   25310.73874329  .00037152  00000-0  12594-2 0  9996
2 62236  53.1620  57.9730 0002290  85.3855 274.7407 15.30219273 53110
Epoch: 2025-11-06T17:43Z
TLE epoch observation values (Epoch: 2025-11-06T17:43:47.420Z)
Latitude
-0.00004°
Longitude
105.83264°
Altitude
475.928 km
Speed
7.629 km/s
True Right ascension
03h 51m 53s
True Declination
0° 00' 00"
Sunlit
Object was in full shadow at epoch
Visualization orbit readout
Latitude
Unknown
Longitude
Unknown
Altitude
Unknown
Speed
Unknown
Apparent Right ascension
Unknown
Apparent Declination
Unknown
Sunlit
N/A
Visualization observer readout
Local Sidereal Time
09:23:50
Azimuth
Unknown
Elevation
Unknown
Doppler factor
Unknown
Orbital elements
Apogee altitude
476.983 km
Perigee altitude
473.844 km
Semi-major axis
6,853.551 km
Eccentricity
0.00023
Inclination
53.162°
RAAN
57.973°
Arg. of periapsis
85.3855°
True anomaly
274.71455°
Mean anomaly
274.7407°
Eccentric anomaly
274.72762°
Mean motion
3.82534 °/min
Orbital period
94.11 mins
BSTAR
0.0012594
Loading maneuver chart data...
Computing Atmospheric mass density...
Loading historical data...
Loading historical data...
Loading historical data...
Loading historical data...
Loading historical data...
Loading historical data...
Loading historical data...

Documentation

Showing up to 5 results
|